QPF
0.02 0.02 0.01 0.02 0.01 0.01 0.01 0.00 0.00 0.00 0.00 0.00 0.00 0.00 0.00 0.00 0.01 0.01 0.00 0.00 0.00 0.00 0.00 0.01 0.01 0.01 0.01 0.01 0.02 0.02 0.02 0.02 0.01 0.02 0.02 0.03 0.03 0.02 0.03 0.04 0.04 0.04 0.04
0.03 0.01 0.01 0.01 0.01 0.01 0.01 0.00 0.00 0.00 0.00 0.00 0.00 0.00 0.00 0.00 0.00 0.01 0.01 0.00 0.00 0.00 0.00 0.00 0.01 0.01 0.02 0.02 0.02 0.03 0.02 0.02 0.01 0.03 0.04 0.05 0.05 0.05 0.05 0.04 0.04 0.03 0.03
0.01 0.01 0.00 0.01 0.01 0.01 0.01 0.01 0.00 0.00 0.00 0.00 0.00 0.00 0.00 0.00 0.01 0.01 0.01 0.01 0.00 0.00 0.00 0.00 0.00 0.01 0.01 0.01 0.01 0.02 0.02 0.01 0.01 0.02 0.03 0.05 0.06 0.07 0.08 0.05 0.03 0.02 0.02
0.01 0.00 0.00 0.00 0.00 0.01 0.01 0.01 0.00 0.00 0.00 0.00 0.00 0.00 0.00 0.01 0.01 0.01 0.01 0.02 0.01 0.01 0.00 0.00 0.00 0.01 0.02 0.01 0.01 0.01 0.01 0.01 0.01 0.01 0.01 0.02 0.03 0.06 0.07 0.05 0.02 0.01 0.01
0.01 0.00 0.00 0.00 0.00 0.00 0.00 0.01 0.00 0.00 0.00 0.00 0.00 0.00 0.00 0.01 0.00 0.00 0.00 0.00 0.01 0.01 0.01 0.00 0.00 0.00 0.02 0.01 0.01 0.00 0.01 0.01 0.02 0.02 0.02 0.02 0.03 0.04 0.03 0.04 0.03 0.01 0.01
0.02 0.01 0.00 0.00 0.00 0.00 0.00 0.00 0.01 0.00 0.01 0.01 0.00 0.00 0.01 0.01 0.01 0.00 0.01 0.01 0.01 0.01 0.01 0.01 0.01 0.01 0.01 0.01 0.01 0.00 0.00 0.01 0.01 0.02 0.02 0.03 0.05 0.05 0.03 0.02 0.02 0.01 0.01
0.02 0.01 0.01 0.00 0.00 0.00 0.01 0.01 0.01 0.02 0.01 0.01 0.01 0.00 0.01 0.01 0.01 0.01 0.01 0.01 0.01 0.01 0.01 0.01 0.01 0.01 0.01 0.01 0.01 0.01 0.01 0.01 0.01 0.01 0.01 0.02 0.03 0.03 0.03 0.02 0.01 0.01 0.01
0.01 0.01 0.02 0.01 0.00 0.01 0.02 0.02 0.03 0.02 0.01 0.01 0.01 0.00 0.00 0.02 0.01 0.00 0.01 0.01 0.01 0.01 0.00 0.00 0.00 0.00 0.00 0.00 0.00 0.01 0.01 0.01 0.00 0.00 0.00 0.01 0.01 0.01 0.02 0.02 0.01 0.01 0.02
0.00 0.00 0.02 0.02 0.00 0.01 0.02 0.02 0.03 0.03 0.02 0.01 0.00 0.01 0.02 0.02 0.01 0.01 0.01 0.01 0.01 0.01 0.01 0.00 0.00 0.00 0.00 0.00 0.00 0.00 0.00 0.01 0.00 0.00 0.01 0.01 0.01 0.01 0.01 0.01 0.01 0.02 0.02
0.00 0.00 0.01 0.01 0.01 0.01 0.01 0.03 0.03 0.03 0.02 0.01 0.01 0.01 0.02 0.01 0.01 0.01 0.00 0.01 0.01 0.01 0.01 0.01 0.00 0.00 0.00 0.00 0.00 0.00 0.01 0.01 0.00 0.00 0.01 0.01 0.01 0.01 0.01 0.00 0.01 0.01 0.01
0.00 0.00 0.01 0.01 0.01 0.01 0.01 0.02 0.02 0.02 0.02 0.01 0.01 0.01 0.02 0.01 0.01 0.01 0.01 0.01 0.02 0.02 0.02 0.01 0.01 0.01 0.01 0.01 0.01 0.00 0.01 0.01 0.01 0.01 0.01 0.01 0.01 0.01 0.01 0.01 0.01 0.00 0.00
0.00 0.00 0.00 0.01 0.00 0.00 0.01 0.02 0.02 0.02 0.02 0.02 0.01 0.02 0.04 0.02 0.01 0.01 0.02 0.02 0.02 0.02 0.01 0.00 0.00 0.00 0.00 0.01 0.01 0.01 0.01 0.01 0.01 0.01 0.01 0.01 0.01 0.01 0.01 0.00 0.01 0.00 0.00
0.00 0.00 0.00 0.01 0.01 0.01 0.01 0.02 0.02 0.03 0.02 0.02 0.03 0.03 0.04 0.03 0.02 0.01 0.01 0.02 0.02 0.01 0.01 0.00 0.00 0.00 0.00 0.00 0.01 0.01 0.01 0.01 0.01 0.01 0.01 0.01 0.01 0.01 0.01 0.01 0.00 0.00 0.00
0.00 0.00 0.00 0.01 0.01 0.01 0.02 0.02 0.02 0.03 0.03 0.04 0.05 0.06 0.07 0.05 0.03 0.02 0.02 0.02 0.02 0.02 0.01 0.01 0.00 0.00 0.00 0.01 0.01 0.01 0.01 0.01 0.02 0.02 0.01 0.01 0.01 0.00 0.01 0.01 0.01 0.01 0.01
0.00 0.00 0.00 0.01 0.01 0.02 0.02 0.02 0.02 0.02 0.03 0.04 0.05 0.07 0.08 0.06 0.05 0.03 0.03 0.02 0.01 0.01 0.02 0.02 0.01 0.00 0.00 0.00 0.01 0.01 0.02 0.02 0.02 0.02 0.01 0.01 0.00 0.00 0.00 0.00 0.01 0.01 0.01
0.00 0.00 0.00 0.01 0.02 0.01 0.02 0.03 0.03 0.03 0.04 0.04 0.05 0.06 0.08 0.08 0.07 0.05 0.04 0.03 0.02 0.02 0.01 0.01 0.01 0.01 0.00 0.00 0.01 0.01 0.01 0.01 0.02 0.02 0.01 0.01 0.00 0.00 0.01 0.01 0.01 0.01 0.02
0.00 0.00 0.00 0.00 0.01 0.01 0.02 0.03 0.04 0.04 0.05 0.05 0.04 0.05 0.07 0.07 0.06 0.06 0.04 0.03 0.03 0.02 0.01 0.01 0.00 0.01 0.01 0.01 0.01 0.00 0.00 0.00 0.00 0.01 0.00 0.00 0.00 0.00 0.00 0.01 0.01 0.01 0.01
0.00 0.00 0.00 0.00 0.00 0.01 0.01 0.02 0.03 0.04 0.04 0.05 0.05 0.05 0.06 0.06 0.05 0.05 0.05 0.05 0.04 0.02 0.01 0.01 0.01 0.01 0.01 0.01 0.01 0.00 0.00 0.00 0.00 0.00 0.00 0.00 0.00 0.00 0.01 0.01 0.01 0.01 0.01
0.00 0.00 0.00 0.00 0.00 0.00 0.01 0.01 0.01 0.02 0.03 0.03 0.04 0.04 0.05 0.06 0.06 0.05 0.06 0.05 0.04 0.03 0.02 0.01 0.01 0.00 0.00 0.00 0.00 0.00 0.00 0.00 0.00 0.00 0.00 0.00 0.00 0.00 0.01 0.01 0.01 0.01 0.01
0.00 0.00 0.00 0.00 0.00 0.00 0.01 0.02 0.02 0.02 0.01 0.01 0.01 0.02 0.03 0.04 0.04 0.04 0.05 0.06 0.07 0.06 0.05 0.03 0.02 0.01 0.00 0.00 0.00 0.01 0.00 0.00 0.00 0.00 0.00 0.00 0.00 0.00 0.00 0.01 0.01 0.01 0.01
0.00 0.00 0.00 0.00 0.00 0.00 0.01 0.01 0.02 0.02 0.02 0.01 0.01 0.02 0.03 0.03 0.03 0.03 0.03 0.03 0.04 0.07 0.08 0.07 0.04 0.02 0.01 0.00 0.00 0.01 0.00 0.00 0.01 0.01 0.01 0.00 0.00 0.00 0.01 0.01 0.01 0.01 0.01
0.00 0.00 0.00 0.00 0.01 0.00 0.00 0.00 0.01 0.02 0.03 0.02 0.01 0.02 0.04 0.04 0.04 0.03 0.03 0.03 0.03 0.04 0.04 0.05 0.05 0.03 0.02 0.01 0.00 0.00 0.00 0.00 0.01 0.01 0.00 0.00 0.00 0.00 0.00 0.00 0.00 0.01 0.02
0.00 0.00 0.00 0.00 0.00 0.00 0.00 0.00 0.01 0.02 0.03 0.02 0.02 0.02 0.03 0.05 0.05 0.04 0.04 0.04 0.04 0.04 0.04 0.04 0.05 0.05 0.05 0.03 0.01 0.01 0.01 0.00 0.00 0.00 0.00 0.00 0.00 0.00 0.00 0.00 0.00 0.01 0.02
0.00 0.00 0.00 0.00 0.01 0.01 0.01 0.01 0.01 0.01 0.02 0.03 0.03 0.03 0.03 0.04 0.05 0.04 0.04 0.04 0.04 0.04 0.04 0.03 0.03 0.03 0.04 0.02 0.02 0.01 0.01 0.01 0.00 0.00 0.00 0.00 0.00 0.00 0.00 0.00 0.00 0.01 0.02
0.00 0.00 0.00 0.00 0.00 0.00 0.01 0.01 0.01 0.01 0.01 0.02 0.03 0.03 0.03 0.02 0.03 0.03 0.04 0.04 0.04 0.04 0.04 0.03 0.03 0.03 0.02 0.02 0.02 0.01 0.01 0.01 0.01 0.01 0.01 0.00 0.00 0.00 0.00 0.00 0.00 0.00 0.00
0.00 0.00 0.00 0.00 0.00 0.00 0.00 0.00 0.00 0.01 0.01 0.01 0.01 0.02 0.02 0.02 0.02 0.02 0.03 0.03 0.03 0.04 0.05 0.05 0.04 0.03 0.02 0.02 0.01 0.01 0.01 0.01 0.01 0.01 0.01 0.01 0.00 0.00 0.00 0.00 0.00 0.00 0.00
MSLP
1017.61 1017.74 1017.83 1017.89 1017.91 1017.92 1017.92 1017.96 1018.03 1018.15 1018.31 1018.49 1018.66 1018.79 1018.86 1018.86 1018.79 1018.66 1018.49 1018.30 1018.12 1017.98 1017.89 1017.89 1017.97 1018.13 1018.39 1018.72 1019.13 1019.60 1020.12 1020.66 1021.20 1021.72 1022.18 1022.56 1022.83 1022.99 1023.02 1022.93 1022.75 1022.52 1022.25
1017.82 1018.00 1018.13 1018.21 1018.22 1018.21 1018.19 1018.20 1018.26 1018.40 1018.58 1018.80 1019.02 1019.20 1019.31 1019.33 1019.27 1019.13 1018.94 1018.74 1018.56 1018.42 1018.35 1018.36 1018.44 1018.59 1018.81 1019.09 1019.42 1019.81 1020.25 1020.73 1021.25 1021.78 1022.30 1022.77 1023.16 1023.46 1023.63 1023.69 1023.64 1023.51 1023.33
1017.90 1018.14 1018.33 1018.43 1018.46 1018.43 1018.40 1018.39 1018.45 1018.58 1018.80 1019.05 1019.32 1019.54 1019.70 1019.75 1019.71 1019.58 1019.40 1019.21 1019.04 1018.91 1018.85 1018.86 1018.93 1019.06 1019.22 1019.42 1019.65 1019.94 1020.28 1020.69 1021.17 1021.70 1022.27 1022.83 1023.36 1023.81 1024.14 1024.36 1024.46 1024.46 1024.39
1017.83 1018.16 1018.41 1018.57 1018.62 1018.60 1018.56 1018.53 1018.58 1018.72 1018.95 1019.24 1019.55 1019.82 1020.03 1020.13 1020.12 1020.02 1019.87 1019.70 1019.55 1019.45 1019.40 1019.41 1019.47 1019.56 1019.67 1019.78 1019.92 1020.10 1020.34 1020.67 1021.09 1021.62 1022.21 1022.85 1023.48 1024.07 1024.55 1024.92 1025.17 1025.29 1025.33
1017.64 1018.06 1018.41 1018.63 1018.73 1018.73 1018.68 1018.65 1018.69 1018.83 1019.07 1019.38 1019.72 1020.05 1020.30 1020.46 1020.50 1020.45 1020.34 1020.21 1020.09 1020.01 1019.99 1020.01 1020.06 1020.12 1020.18 1020.23 1020.28 1020.36 1020.51 1020.76 1021.12 1021.62 1022.22 1022.90 1023.60 1024.28 1024.88 1025.36 1025.72 1025.95 1026.09
1017.38 1017.92 1018.36 1018.66 1018.81 1018.84 1018.80 1018.77 1018.79 1018.92 1019.16 1019.49 1019.87 1020.23 1020.54 1020.75 1020.85 1020.85 1020.79 1020.70 1020.63 1020.59 1020.59 1020.63 1020.69 1020.74 1020.76 1020.77 1020.76 1020.78 1020.85 1021.03 1021.33 1021.78 1022.35 1023.02 1023.74 1024.46 1025.11 1025.67 1026.10 1026.41 1026.61
1017.14 1017.78 1018.31 1018.69 1018.90 1018.96 1018.94 1018.90 1018.91 1019.03 1019.27 1019.60 1019.99 1020.39 1020.74 1021.00 1021.15 1021.21 1021.20 1021.17 1021.13 1021.13 1021.17 1021.24 1021.31 1021.37 1021.40 1021.39 1021.36 1021.34 1021.37 1021.49 1021.73 1022.12 1022.63 1023.26 1023.94 1024.64 1025.28 1025.85 1026.31 1026.65 1026.89
1016.97 1017.69 1018.30 1018.74 1019.00 1019.09 1019.08 1019.04 1019.05 1019.16 1019.39 1019.72 1020.12 1020.54 1020.92 1021.22 1021.41 1021.52 1021.56 1021.56 1021.57 1021.61 1021.68 1021.79 1021.90 1021.99 1022.05 1022.07 1022.05 1022.03 1022.04 1022.12 1022.31 1022.62 1023.06 1023.60 1024.20 1024.82 1025.42 1025.94 1026.38 1026.73 1026.99
1016.89 1017.65 1018.32 1018.80 1019.09 1019.21 1019.22 1019.19 1019.20 1019.30 1019.53 1019.86 1020.26 1020.69 1021.09 1021.41 1021.63 1021.77 1021.84 1021.88 1021.93 1022.00 1022.11 1022.25 1022.41 1022.55 1022.67 1022.74 1022.76 1022.77 1022.79 1022.86 1023.01 1023.26 1023.60 1024.04 1024.53 1025.05 1025.55 1026.00 1026.39 1026.71 1026.97
1016.88 1017.66 1018.33 1018.83 1019.14 1019.28 1019.31 1019.30 1019.32 1019.44 1019.67 1020.01 1020.41 1020.84 1021.24 1021.57 1021.82 1021.97 1022.06 1022.12 1022.19 1022.29 1022.43 1022.62 1022.83 1023.03 1023.22 1023.36 1023.45 1023.52 1023.57 1023.65 1023.77 1023.96 1024.22 1024.55 1024.93 1025.33 1025.72 1026.09 1026.42 1026.70 1026.95
1016.88 1017.63 1018.28 1018.78 1019.09 1019.25 1019.31 1019.34 1019.40 1019.54 1019.80 1020.14 1020.56 1020.99 1021.39 1021.73 1021.97 1022.13 1022.23 1022.30 1022.39 1022.51 1022.68 1022.90 1023.16 1023.43 1023.68 1023.90 1024.07 1024.20 1024.30 1024.40 1024.52 1024.67 1024.87 1025.10 1025.38 1025.67 1025.97 1026.26 1026.53 1026.77 1027.00
1016.83 1017.52 1018.13 1018.59 1018.90 1019.08 1019.18 1019.26 1019.38 1019.58 1019.88 1020.26 1020.69 1021.13 1021.53 1021.86 1022.10 1022.26 1022.37 1022.45 1022.55 1022.68 1022.88 1023.13 1023.43 1023.75 1024.06 1024.34 1024.58 1024.78 1024.94 1025.07 1025.19 1025.32 1025.48 1025.65 1025.85 1026.06 1026.28 1026.51 1026.73 1026.95 1027.18
1016.68 1017.28 1017.82 1018.24 1018.55 1018.76 1018.91 1019.07 1019.26 1019.53 1019.89 1020.31 1020.77 1021.23 1021.63 1021.97 1022.21 1022.38 1022.50 1022.59 1022.70 1022.85 1023.06 1023.34 1023.66 1024.01 1024.36 1024.69 1024.98 1025.23 1025.43 1025.59 1025.73 1025.86 1026.00 1026.14 1026.29 1026.46 1026.63 1026.82 1027.02 1027.23 1027.45
1016.40 1016.91 1017.37 1017.75 1018.05 1018.29 1018.51 1018.74 1019.03 1019.39 1019.81 1020.29 1020.79 1021.26 1021.68 1022.03 1022.29 1022.47 1022.61 1022.73 1022.86 1023.03 1023.26 1023.54 1023.88 1024.24 1024.60 1024.95 1025.26 1025.53 1025.75 1025.94 1026.10 1026.24 1026.37 1026.50 1026.64 1026.79 1026.95 1027.13 1027.32 1027.53 1027.75
1016.02 1016.42 1016.80 1017.14 1017.43 1017.71 1018.00 1018.32 1018.69 1019.14 1019.64 1020.17 1020.70 1021.21 1021.65 1022.02 1022.30 1022.52 1022.69 1022.85 1023.01 1023.21 1023.45 1023.74 1024.07 1024.42 1024.76 1025.10 1025.40 1025.66 1025.89 1026.09 1026.26 1026.41 1026.56 1026.70 1026.85 1027.01 1027.17 1027.35 1027.55 1027.77 1028.00
1015.57 1015.88 1016.18 1016.48 1016.77 1017.08 1017.42 1017.82 1018.27 1018.79 1019.35 1019.93 1020.50 1021.03 1021.50 1021.89 1022.21 1022.48 1022.70 1022.91 1023.12 1023.35 1023.61 1023.90 1024.21 1024.53 1024.84 1025.13 1025.39 1025.63 1025.84 1026.03 1026.21 1026.37 1026.54 1026.70 1026.87 1027.05 1027.23 1027.43 1027.64 1027.87 1028.11
1015.13 1015.35 1015.58 1015.83 1016.11 1016.44 1016.82 1017.28 1017.79 1018.36 1018.96 1019.57 1020.16 1020.71 1021.20 1021.63 1022.00 1022.32 1022.60 1022.87 1023.14 1023.41 1023.69 1023.97 1024.26 1024.53 1024.79 1025.02 1025.24 1025.43 1025.61 1025.78 1025.95 1026.13 1026.31 1026.50 1026.69 1026.90 1027.11 1027.32 1027.55 1027.79 1028.04
1014.73 1014.87 1015.04 1015.25 1015.51 1015.84 1016.25 1016.72 1017.26 1017.85 1018.47 1019.08 1019.68 1020.24 1020.75 1021.21 1021.62 1022.00 1022.35 1022.68 1023.01 1023.32 1023.62 1023.90 1024.16 1024.39 1024.59 1024.76 1024.92 1025.06 1025.20 1025.35 1025.52 1025.70 1025.90 1026.12 1026.34 1026.57 1026.80 1027.03 1027.27 1027.51 1027.77
1014.42 1014.49 1014.59 1014.76 1014.99 1015.31 1015.71 1016.18 1016.72 1017.30 1017.90 1018.50 1019.08 1019.64 1020.16 1020.65 1021.10 1021.53 1021.94 1022.33 1022.70 1023.05 1023.36 1023.64 1023.88 1024.07 1024.22 1024.34 1024.44 1024.54 1024.66 1024.79 1024.95 1025.15 1025.36 1025.60 1025.84 1026.09 1026.34 1026.59 1026.84 1027.09 1027.34
1014.19 1014.20 1014.25 1014.37 1014.57 1014.85 1015.22 1015.67 1016.17 1016.72 1017.29 1017.86 1018.42 1018.96 1019.48 1019.98 1020.46 1020.93 1021.38 1021.81 1022.22 1022.59 1022.91 1023.18 1023.39 1023.55 1023.67 1023.75 1023.82 1023.90 1024.00 1024.13 1024.30 1024.51 1024.74 1025.00 1025.26 1025.53 1025.80 1026.06 1026.31 1026.57 1026.83
1014.02 1013.99 1014.00 1014.07 1014.23 1014.47 1014.80 1015.20 1015.66 1016.16 1016.68 1017.21 1017.74 1018.26 1018.76 1019.26 1019.76 1020.24 1020.71 1021.16 1021.58 1021.95 1022.27 1022.52 1022.72 1022.86 1022.95 1023.02 1023.08 1023.16 1023.26 1023.41 1023.59 1023.81 1024.07 1024.34 1024.62 1024.91 1025.19 1025.47 1025.74 1026.00 1026.27
1013.91 1013.84 1013.81 1013.86 1013.97 1014.17 1014.45 1014.80 1015.21 1015.66 1016.13 1016.62 1017.10 1017.59 1018.08 1018.57 1019.05 1019.52 1019.99 1020.42 1020.82 1021.18 1021.48 1021.71 1021.89 1022.01 1022.10 1022.18 1022.25 1022.34 1022.46 1022.63 1022.83 1023.07 1023.34 1023.63 1023.93 1024.23 1024.53 1024.82 1025.12 1025.41 1025.71
1013.82 1013.74 1013.70 1013.71 1013.80 1013.96 1014.19 1014.49 1014.85 1015.25 1015.67 1016.12 1016.57 1017.02 1017.48 1017.94 1018.39 1018.83 1019.25 1019.65 1020.01 1020.32 1020.58 1020.79 1020.94 1021.06 1021.16 1021.24 1021.34 1021.46 1021.61 1021.80 1022.03 1022.28 1022.56 1022.86 1023.17 1023.48 1023.80 1024.12 1024.45 1024.78 1025.12
1013.78 1013.70 1013.65 1013.66 1013.72 1013.84 1014.04 1014.30 1014.61 1014.96 1015.34 1015.74 1016.15 1016.57 1016.98 1017.40 1017.80 1018.19 1018.55 1018.88 1019.17 1019.42 1019.63 1019.80 1019.93 1020.04 1020.14 1020.25 1020.38 1020.53 1020.70 1020.91 1021.15 1021.41 1021.69 1021.99 1022.30 1022.62 1022.95 1023.31 1023.68 1024.07 1024.47
1013.78 1013.73 1013.69 1013.70 1013.75 1013.85 1014.01 1014.23 1014.49 1014.79 1015.13 1015.49 1015.85 1016.22 1016.59 1016.94 1017.28 1017.60 1017.88 1018.13 1018.34 1018.52 1018.66 1018.78 1018.89 1018.99 1019.10 1019.23 1019.38 1019.55 1019.74 1019.96 1020.20 1020.45 1020.71 1020.99 1021.29 1021.61 1021.97 1022.35 1022.78 1023.23 1023.70
1013.87 1013.85 1013.84 1013.86 1013.90 1013.98 1014.11 1014.28 1014.50 1014.75 1015.03 1015.33 1015.64 1015.96 1016.26 1016.55 1016.81 1017.04 1017.23 1017.39 1017.52 1017.62 1017.70 1017.77 1017.85 1017.95 1018.06 1018.20 1018.36 1018.54 1018.74 1018.95 1019.17 1019.39 1019.62 1019.86 1020.14 1020.45 1020.81 1021.23 1021.71 1022.24 1022.79
Thickness
5746 5747 5747 5746 5745 5744 5742 5741 5739 5738 5736 5734 5731 5728 5727 5728 5728 5727 5727 5727 5727 5726 5726 5725 5724 5723 5721 5719 5719 5717 5714 5712 5712 5708 5703 5703 5704 5703 5702 5702 5700 5699 5698
5743 5743 5743 5743 5742 5741 5740 5739 5737 5736 5734 5732 5730 5728 5727 5726 5725 5725 5724 5724 5723 5723 5723 5722 5720 5719 5718 5716 5715 5714 5710 5710 5711 5706 5699 5693 5693 5696 5698 5697 5696 5695 5693
5742 5741 5740 5740 5739 5738 5737 5738 5736 5734 5733 5731 5729 5727 5724 5723 5721 5720 5720 5721 5721 5720 5720 5719 5718 5717 5715 5713 5712 5711 5709 5705 5707 5708 5702 5693 5687 5688 5690 5692 5691 5690 5689
5745 5741 5739 5738 5737 5737 5737 5736 5735 5733 5731 5730 5726 5723 5718 5716 5717 5718 5718 5718 5718 5718 5717 5717 5716 5715 5713 5711 5711 5710 5709 5705 5702 5704 5706 5703 5697 5688 5681 5684 5687 5687 5685
5746 5742 5740 5739 5738 5737 5736 5735 5733 5732 5730 5728 5726 5722 5719 5718 5718 5718 5716 5716 5716 5715 5715 5714 5714 5712 5710 5709 5708 5707 5706 5704 5702 5700 5700 5699 5697 5694 5685 5677 5679 5680 5680
5746 5744 5742 5740 5737 5736 5733 5732 5730 5728 5728 5727 5725 5722 5719 5717 5715 5714 5713 5712 5713 5713 5712 5712 5711 5709 5708 5706 5705 5704 5703 5702 5701 5699 5697 5694 5691 5687 5685 5679 5676 5674 5674
5744 5741 5739 5736 5734 5732 5730 5729 5726 5725 5725 5725 5723 5722 5719 5717 5715 5713 5711 5710 5709 5708 5709 5709 5707 5706 5705 5703 5702 5701 5700 5699 5697 5696 5694 5693 5690 5689 5685 5680 5676 5673 5671
5743 5740 5738 5735 5732 5730 5728 5726 5724 5722 5723 5722 5722 5721 5720 5717 5715 5714 5712 5710 5709 5708 5707 5706 5704 5703 5702 5700 5699 5697 5697 5696 5694 5693 5691 5689 5688 5687 5684 5680 5675 5669 5667
5742 5740 5737 5734 5731 5728 5726 5726 5723 5721 5720 5720 5719 5718 5717 5716 5714 5713 5712 5710 5708 5707 5705 5703 5701 5699 5698 5697 5696 5694 5692 5692 5690 5689 5688 5686 5685 5684 5683 5681 5677 5670 5662
5740 5739 5736 5733 5731 5728 5726 5724 5723 5720 5718 5717 5716 5716 5715 5714 5713 5712 5709 5707 5706 5704 5702 5700 5698 5696 5695 5694 5692 5690 5689 5687 5686 5685 5683 5682 5681 5680 5679 5678 5676 5672 5666
5738 5736 5734 5732 5730 5727 5724 5721 5719 5717 5716 5715 5714 5712 5712 5711 5710 5709 5707 5705 5703 5701 5699 5697 5695 5693 5691 5690 5688 5686 5685 5683 5682 5681 5679 5677 5677 5675 5674 5673 5671 5668 5665
5738 5736 5733 5730 5727 5724 5721 5719 5717 5715 5714 5713 5711 5709 5708 5708 5706 5705 5704 5702 5700 5699 5697 5695 5693 5690 5689 5687 5685 5683 5681 5679 5678 5677 5675 5673 5673 5670 5669 5667 5665 5663 5661
5735 5733 5730 5726 5723 5721 5719 5717 5716 5714 5713 5711 5708 5705 5704 5703 5702 5702 5701 5699 5697 5695 5694 5691 5689 5687 5685 5684 5682 5680 5678 5676 5675 5673 5671 5669 5667 5665 5664 5662 5660 5658 5657
5731 5729 5725 5723 5721 5719 5718 5716 5714 5712 5710 5708 5704 5701 5700 5699 5698 5698 5697 5696 5694 5692 5689 5687 5685 5683 5682 5680 5678 5677 5675 5672 5670 5669 5667 5665 5662 5660 5659 5657 5655 5653 5650
5727 5725 5722 5720 5718 5716 5715 5713 5711 5709 5707 5703 5700 5697 5696 5695 5694 5693 5692 5691 5690 5688 5686 5683 5681 5679 5677 5675 5673 5672 5670 5668 5666 5664 5662 5660 5658 5656 5654 5652 5649 5647 5644
5723 5723 5721 5718 5715 5713 5711 5709 5707 5706 5703 5700 5696 5694 5691 5689 5687 5687 5686 5685 5684 5683 5680 5678 5675 5673 5672 5670 5669 5667 5665 5664 5661 5658 5656 5655 5652 5650 5648 5647 5644 5642 5638
5721 5719 5718 5716 5714 5713 5710 5706 5705 5703 5699 5695 5692 5689 5687 5684 5682 5682 5681 5679 5677 5676 5674 5673 5670 5667 5666 5665 5664 5662 5660 5658 5656 5654 5652 5650 5648 5645 5642 5640 5638 5636 5634
5719 5717 5716 5715 5714 5713 5709 5706 5703 5699 5695 5692 5688 5685 5683 5680 5678 5677 5675 5674 5673 5671 5669 5667 5665 5662 5661 5660 5659 5657 5655 5653 5651 5649 5647 5644 5641 5639 5636 5634 5631 5629 5627
5718 5716 5716 5714 5712 5710 5708 5704 5699 5695 5692 5688 5685 5682 5679 5676 5673 5671 5670 5670 5668 5666 5665 5662 5660 5657 5655 5655 5654 5652 5649 5647 5646 5644 5641 5639 5635 5633 5631 5628 5625 5622 5620
5715 5713 5712 5711 5708 5707 5705 5700 5695 5691 5688 5686 5684 5680 5677 5673 5669 5667 5666 5665 5664 5662 5660 5658 5656 5654 5651 5650 5648 5646 5644 5641 5640 5637 5635 5632 5630 5628 5625 5622 5619 5615 5613
5709 5709 5707 5704 5703 5703 5700 5695 5692 5689 5687 5685 5681 5677 5674 5670 5667 5664 5663 5661 5659 5657 5656 5653 5652 5650 5648 5646 5644 5641 5639 5637 5634 5631 5628 5626 5624 5622 5619 5616 5613 5610 5608
5702 5701 5699 5697 5697 5697 5694 5690 5687 5687 5684 5681 5677 5674 5670 5668 5665 5660 5658 5657 5654 5652 5650 5649 5646 5645 5644 5641 5639 5637 5634 5633 5629 5626 5624 5621 5619 5616 5613 5610 5607 5604 5601
5694 5694 5692 5690 5690 5690 5688 5684 5682 5682 5679 5675 5672 5669 5667 5663 5660 5657 5653 5651 5650 5647 5645 5644 5641 5640 5639 5637 5635 5632 5630 5627 5624 5622 5619 5616 5613 5610 5606 5603 5600 5597 5593
5687 5686 5684 5682 5682 5682 5682 5680 5679 5678 5674 5669 5666 5664 5661 5658 5656 5652 5650 5647 5645 5643 5642 5640 5638 5636 5634 5632 5630 5627 5624 5621 5618 5616 5613 5610 5607 5604 5601 5597 5594 5590 5587
5680 5679 5677 5675 5675 5676 5675 5675 5674 5672 5668 5664 5661 5658 5656 5653 5650 5647 5644 5643 5642 5642 5640 5638 5636 5633 5630 5629 5627 5623 5620 5617 5614 5610 5607 5603 5600 5597 5594 5591 5589 5585 5581
5672 5671 5671 5670 5670 5670 5670 5669 5668 5666 5663 5659 5657 5653 5650 5647 5644 5641 5637 5636 5637 5637 5636 5635 5633 5631 5629 5626 5624 5620 5617 5614 5611 5606 5602 5599 5596 5593 5591 5587 5584 5580 5577